COSMOS 2571

Satellite information

Favourite Embed

Satellite Type and Status

PAYLOADIN ORBIT

Key statistics

Satellite COSMOS 2571 at a glance.

Uptime

619

Days in orbit

Revolutions

≈ 14.0

Per day

Orbit

LEO

Low Earth Orbit

Inclination

67.1

Latest

Satellite identification and parameters

Extended collection of information and parameters for COSMOS 2571.

Object identification

Identified? True

Debris? False

Object name: COSMOS 2571

International designator: 2023-165C

Object number (NORAD): 58172

Object ID (CCSDS): 58172

Country: COMMONWEALTH OF INDEPENDENT STATES (CIS)

Current information (Y/N): Y

RCS size: MEDIUM

Orbital parameters

Period: 103.057 minutes

Inclination: 67.1499 deg

SMA: 7281.354 km

Apoapsis: 917.419 km

Periapsis: 889.018 km

RAAN: 48.1856 deg

Eccentricy: 0.0019502

Argument of periapsis: 249.3883 deg

Mean anomaly: 110.5111 deg

Mean motion: 13.97283673 rev/day

Mean motion (dot): -0.00000027 rev/day2

B* drag term: 0.000034476 1/REarth

Two-line elements (TLE)

Creation date: July 6, 2025, 6:05 p.m.

Reference frame: TEME

Reference center: EARTH

Epoch: July 6, 2025, 1:59 p.m. UTC

TLE line 0: 0 COSMOS 2571

TLE line 1: 1 58172U 23165C 25187.58316817 -.00000027 00000-0 34476-4 0 9990

TLE line 2: 2 58172 67.1499 48.1856 0019502 249.3883 110.5111 13.97283673 86077

Live tracking on map

Real-time ground track for satellite COSMOS 2571.

In-orbit conjunctions

There are no conjunctions computed for COSMOS 2571, at the moment. Check back to stay up to date, as we update our databases every day.

Go to all conjunctions

Associated space launch

Note: Payload identity uncertain. Multiple other military payloads that are not identified may be on board. Lotos-S1 spacecraft is a part of the Liana constellation, designed for orbital electronic intelligence.

COSMOS 2571 was lifted into orbit during the mission ‘Soyuz 2.1b | Kosmos 2570 (Lotos-S1 #8)’, on board a Soyuz 2.1b space rocket.

The launch took place on Oct. 27, 2023, 6:04 a.m. from 43/3 (43L).

For more information about the launch, click the button.

Launch to space Soyuz 2.1b | Kosmos 2570 (Lotos-S1 #8)
Soyuz 2.1b | Kosmos 2570 (Lotos-S1 #8)

Agency: N/A

Status: Launch Successful

Launch date: Oct. 27, 2023, 6:04 a.m. UTC

Rocket: Soyuz 2.1b

Launch pad: 43/3 (43L)

Location: Plesetsk Cosmodrome, Russian Federation

...

Latest news about this satellite

There are no fresh news available about this satellite. Check back as we update our databases every day.


Newsletter sign-up

Weekly statistics, charts and insights to help you stay on top of the space industry.